[Date Prev][Date Next][Thread Prev][Thread Next] - [Date Index][Thread Index][Author Index]

2 Line ISS Keps 8-6



ISS
1 25544U 98067A   04219.44264862  .00014342  00000-0  11844-3 0  3856
2 25544  51.6327  69.2583 0006104  85.5276 348.5971 15.70587396326215
----
Via the sarex mailing list at AMSAT.ORG courtesy of AMSAT-NA.
To unsubscribe, send "unsubscribe sarex" to Majordomo@amsat.org



AMSAT Top AMSAT Home